www.pogodaiklimat.ru

Погода и климат >> Архив погоды >> Алжир >> In Amenas


ПОГОДА в In Amenas

  • Прогноз погоды в In Amenas
  • Монитор погоды в In Amenas
  • Климат города

АРХИВ ПОГОДЫ в In Amenas

Время (UTC), дата Ветер
(напр.,м/с)
 
Видим.   Явления Облачность Т
(С)
Тd
(С)
f
(%)
Тe
(С)
Тes
(С)
Комфортность P
(гПа)
Po
(гПа)
Тmin
(С)
Tmax
(С)
R
(мм)
R24
(мм)
S
(см)
00 14.09 В 5 10 км ясно +26.7 +7.7 30 +27 +27 жарко 1011.9 1012.0
03 14.09 В 4 10 км ясно +24.5 +8.0 35 +25 +25 комфорт 1011.5 1012.0
06 14.09 СВ 3 10 км ясно +23.5 +7.9 37 +24 +25 комфорт 1013.2 1013.0 +22.2
09 14.09 ЮВ 9 8000 м ясно +31.5 +8.5 24 +30 +31 жарко 1014.1 1014.0
12 14.09 ЮВ 6 10 км ясно +35.9 +6.8 17 +34 +41 очень
жарко
1012.9 1013.0
15 14.09 В 5 10 км ясно +37.5 +2.1 11 +34 +37 очень
жарко
1010.1 1010.0
18 14.09 В 4 10 км ясно +34.2 +3.9 15 +31 +31 жарко 1011.0 1011.0 +37.7
21 14.09 СВ 5 10 км ясно +29.3 +4.0 20 +27 +27 жарко 1013.6 1014.0
00 15.09 СВ 5 10 км ясно +25.8 +4.7 26 +25 +25 комфорт 1013.0 1013.0
03 15.09 В 4 10 км ясно +24.9 +6.1 30 +25 +25 комфорт 1013.6 1014.0
06 15.09 СВ 4 10 км ясно +24.7 +6.0 30 +25 +25 комфорт 1014.8 1015.0 +23.2
09 15.09 ЮВ 6 10 км ясно +34.1 +5.6 17 +32 +36 жарко 1015.0 1015.0
12 15.09 ЮВ 5 10 км ясно +38.0 +2.4 11 +35 +43 очень
жарко
1013.6 1014.0
15 15.09 В 5 10 км ясно +38.6 +1.6 10 +35 +39 очень
жарко
1012.1 1012.0
18 15.09 В 4 10 км ясно +35.7 +0.9 11 +32 +32 жарко 1012.6 1013.0 +39.6
21 15.09 СВ 4 10 км ясно +31.2 +2.9 17 +29 +29 жарко 1013.7 1014.0
00 16.09 СВ 7 10 км ясно +29.0 +6.9 25 +28 +28 жарко 1014.3 1014.0
03 16.09 СВ 6 10 км ясно +26.7 +10.2 36 +27 +27 жарко 1013.8 1014.0
06 16.09 В 5 10 км ясно +26.0 +10.8 39 +27 +27 жарко 1015.3 1015.0 +25.1
09 16.09 В 7 10 км ясно +32.6 +10.6 26 +32 +36 жарко 1015.7 1016.0
12 16.09 СВ 4 10 км ясно +36.6 +6.7 16 +34 +47 очень
жарко
1013.2 1013.0
15 16.09 С 5 10 км ясно +37.7 +6.6 15 +35 +38 очень
жарко
1010.9 1011.0
18 16.09 СВ 7 10 км ясно +34.4 +6.7 18 +32 +32 жарко 1013.7 1014.0 +37.8
21 16.09 СВ 6 10 км ясно +29.9 +7.9 25 +29 +29 жарко 1015.3 1015.0
00 17.09 СВ 7 10 км ясно +27.0 +10.0 34 +27 +27 жарко 1015.1 1015.0
03 17.09 СВ 6 10 км ясно +24.6 +12.0 45 +26 +26 жарко 1015.0 1015.0
06 17.09 СВ 6 10 км ясно +23.3 +13.7 55 +27 +27 душно 1016.5 1017.0 +22.8
09 17.09 В 9 6000 м пыльный позёмок ясно +29.4 +13.6 38 +31 +32 жарко 1017.2 1017.0
12 17.09 В 5 7000 м ясно +32.5 +9.4 24 +32 +40 жарко 1015.6 1016.0
15 17.09 СВ 5 10 км ясно +33.6 +8.1 21 +32 +35 жарко 1013.5 1014.0
18 17.09 СВ 7 10 км ясно +30.6 +7.2 23 +29 +29 жарко 1014.5 1015.0 +34.0
21 17.09 СВ 4 10 км ясно +26.2 +5.4 26 +25 +25 комфорт 1015.7 1016.0
00 18.09 СВ 5 10 км ясно +24.2 +6.1 31 +24 +24 комфорт 1015.0 1015.0
03 18.09 СВ 4 10 км ясно +22.3 +8.4 41 +24 +24 комфорт 1015.0 1015.0
06 18.09 СВ 4 10 км 3/0
[Ac trans]
+20.9 +8.6 45 +22 +23 комфорт 1016.3 1016.0 +20.6
09 18.09 В 8 10 км 3/0
[Ci fib]
+29.5 +8.5 27 +29 +31 жарко 1016.9 1017.0
12 18.09 В 7 10 км 5/0
[Ci]
+31.5 +7.9 23 +30 +35 жарко 1015.3 1015.0
15 18.09 В 7 10 км 8/0
[Ac trans Ci fib]
+32.7 +5.4 18 +30 +32 жарко 1013.6 1014.0
18 18.09 СВ 6 10 км 8/0
[Ac trans Ci fib]
+30.4 +6.8 23 +29 +29 жарко 1014.5 1015.0 +33.2
21 18.09 В 5 10 км 5/0
[Ac trans Ci fib]
+28.1 +7.0 26 +27 +27 жарко 1015.4 1015.0
00 19.09 СВ 3 10 км 5/0
[Ac trans Ci fib]
+24.6 +5.9 30 +24 +24 комфорт 1014.9 1015.0
03 19.09 СВ 5 10 км 5/0
[Ac trans Ci fib]
+22.8 +5.1 32 +23 +23 комфорт 1014.4 1014.0
06 19.09 СВ 4 10 км ясно +21.7 +5.7 35 +22 +23 комфорт 1015.7 1016.0 +20.9
09 19.09 В 7 10 км ясно +29.8 +6.6 23 +29 +31 жарко 1016.5 1017.0
12 19.09 В 5 10 км 5/0
[Ci]
+32.5 +5.3 18 +30 +38 жарко 1014.6 1015.0
15 19.09 В 4 10 км 5/0
[Ci]
+32.9 +4.8 17 +30 +34 жарко 1013.2 1013.0
18 19.09 В 4 10 км 5/0
[Ci]
+30.5 +5.0 20 +29 +29 жарко 1013.2 1013.0 +33.4
21 19.09 В 6 10 км 3/0
[Ci sp]
+27.2 +6.0 26 +26 +26 жарко 1015.1 1015.0
00 20.09 СВ 3 10 км ясно +24.0 +6.1 32 +24 +24 комфорт 1014.1 1014.0
03 20.09 СВ 3 10 км ясно +20.7 +4.6 35 +22 +22 комфорт 1013.7 1014.0
06 20.09 СВ 3 10 км 5/0
[Ac trans Ci sp]
+21.2 +5.5 36 +22 +22 комфорт 1015.8 1016.0 +20.5
09 20.09 В 6 10 км 3/0
[Ci sp]
+30.2 +6.7 23 +29 +33 жарко 1015.0 1015.0
12 20.09 В 7 10 км 4/0
[Ac trans Ci sp]
+32.8 +5.3 18 +31 +35 жарко 1013.1 1013.0
15 20.09 В 5 10 км 4/0
[Ac trans Ci sp]
+33.5 +4.1 16 +31 +34 жарко 1011.5 1012.0
18 20.09 В 4 10 км 4/0
[Ac trans Ci sp]
+30.9 +4.0 18 +29 +29 жарко 1011.7 1012.0 +34.2

 

Местоположение метеостанции In Amenas (Алжир): широта 28.05 долгота 9.63 высота над уровнем моря 562 м.

В архиве по умолчанию представлена погода в In Amenas за последнюю неделю. Архивные данные за месяц целиком и за предыдущие месяцы, начиная с января 2011 года, Вы можете получить, выбрав интересующий диапазон дат из раскрывающегося списка и нажав кнопку "Ввод!".


*Определитесь, кто Вы:
робот инопланетянин человек

Внимание! Время в таблицах - всемирное. Для получения местного времени необходимо прибавить поправку, которая в In Amenas равна 1 ч.

Смотрите также архив погоды в соседних городах и на ближайших метеорологических станциях:

Погода в Tin Fouye (Алжир) (208 км)
Погода в Illizi (Алжир) (210 км)
Погода в Ghadames (Ливия) (232 км)
Погода в Fadnoune (Алжир) (287 км)
Погода в Rhourde-Nouss (Алжир) (340 км)
Погода в El Hamada (Ливия) (361 км)
Погода в Bordj Haous (Алжир) (381 км)
Погода в Tinalkoum (Алжир) (388 км)
Погода в El Borma (Тунис) (406 км)
Погода в Djanet (Алжир) (421 км)

Пояснения к столбцам:

Ветер - указаны скорость ветра в м/с - средняя за 10 мин, порывы в срок и между сроками (в фигурных скобках) и направление, откуда дует ветер: С - северный, СВ - северо-восточный, В - восточный, ЮВ - юго-восточный, Ю - южный, ЮЗ - юго-западный, З - западный, СЗ - северо-западный.
Видимость - горизонтальная дальность видимости в метрах или километрах. При видимости от 1 до 10 км при отсутствии осадков обычно наблюдается дымка, при ухудшении видимости до 1 км и менее - туман. В сухую погоду видимость может ухудшаться дымом, пылью или мглою.
Явления - указаны атмосферные явления, наблюдавшиеся в срок или в последний час перед сроком; фигурными скобками обозначены явления, наблюдавшиеся между сроками (за 1-3 часа до срока); квадратными скобками обозначены град или гололедные отложения с указанием их диаметра в мм.
Облачность - указаны через наклонную черту общая и нижняя облачность в баллах и высота нижней границы облаков в метрах; квадратными скобками обозначены формы облаков: Ci - перистые, Cs - перисто-слоистые, Cc - перисто-кучевые, Ac - высококучевые, As - высокослоистые, Sc - слоисто-кучевые, Ns - слоисто-дождевые, Cu - кучевые, Cb - кучево-дождевые. Подробнее классификацию облаков см. в Атласе облаков (PDF).
T - Температура воздуха - температура, измеренная на высоте 2 м над землей.
Td - Температура точки росы - температура, при понижении до которой содержащийся в воздухе водяной пар достигнет насыщения.
f - Относительная влажность воздуха - влажноcть воздуха, измеренная на высоте 2 м над землей.
Te - Эффективная температура - температура, которую ощущает одетый по сезону человек в тени. Характеристика душности погоды. При расчете учитывается влияние влажности воздуха и скорости ветра на теплоощущения человека.
Tes - Эффективная температура на солнце - температура, которую ощущает человек, с поправкой на солнечный нагрев. Характеристика знойности погоды. Зависит от высоты солнца над горизонтом, облачности и скорости ветра. Ночью, в пасмурную погоду, а также при ветре 12 м/с и более поправка равна нулю.
P - Атмосферное давление - приведенное к уровню моря атмосферное давление.
Po - Атмосферное давление - измеренное на уровне метеостанции атмосферное давление.
Tmin - Минимальная температура - минимум температуры воздуха на высоте 2 м над землей.
Tmax - Максимальная температура - максимум температуры воздуха на высоте 2 м над землей.
R - Количество осадков - Количество выпавших осадков за период времени, мм. При наведении курсора мыши на число - период времени, за который выпало указанное количество осадков.
R24 - Количество осадков - Количество выпавших осадков за 24 часа, мм.
S - Снежный покров - Высота снежного покрова, см. При наведении курсора мыши на число - состояние снежного покрова и степень покрытия местности в баллах.